Wetterdaten: Montag, 25.05.2015
Datum Zeit Temp. A. Feuchte A. Luftdruck Regen Wind Richtung Richtung Sonnenschein ET UV Solar Taupunkt Windchill Windben Empfang
25.05.2015 00:00 10,4 C 96 % 1017,5 hPa 0,0 l/m 0,0 km/h (0 Bft) S-SW 205 0 min 0,000 mm 0,0 UV-I 0 W/m 9,8 C 10,4 C 0,0 km/h (0 Bft) 0,00 %
25.05.2015 00:15 10,4 C 97 % 1017,4 hPa 0,0 l/m 0,0 km/h (0 Bft) S-SW 205 0 min 0,000 mm 0,0 UV-I 0 W/m 9,9 C 10,4 C 0,0 km/h (0 Bft) 0,00 %
25.05.2015 00:30 10,3 C 97 % 1017,4 hPa 0,0 l/m 0,0 km/h (0 Bft) S-SW 205 0 min 0,000 mm 0,0 UV-I 0 W/m 9,8 C 10,3 C 0,0 km/h (0 Bft) 0,00 %
25.05.2015 00:45 10,3 C 97 % 1017,1 hPa 0,0 l/m 0,0 km/h (0 Bft) S-SW 204 0 min 0,000 mm 0,0 UV-I 0 W/m 9,8 C 10,3 C 0,0 km/h (0 Bft) 0,00 %
25.05.2015 01:00 10,3 C 97 % 1017,4 hPa 0,0 l/m 0,0 km/h (0 Bft) S 173 0 min 0,000 mm 0,0 UV-I 0 W/m 9,8 C 10,3 C 0,0 km/h (0 Bft) 0,00 %
25.05.2015 01:15 10,3 C 97 % 1017,4 hPa 0,0 l/m 0,0 km/h (0 Bft) S 183 0 min 0,000 mm 0,0 UV-I 0 W/m 9,8 C 10,3 C 0,0 km/h (0 Bft) 0,00 %
25.05.2015 01:30 10,3 C 97 % 1017,4 hPa 0,0 l/m 0,0 km/h (0 Bft) S 182 0 min 0,000 mm 0,0 UV-I 0 W/m 9,8 C 10,3 C 0,0 km/h (0 Bft) 0,00 %
25.05.2015 01:45 10,2 C 97 % 1017,3 hPa 0,0 l/m 0,0 km/h (0 Bft) S-SW 196 0 min 0,000 mm 0,0 UV-I 0 W/m 9,7 C 10,2 C 0,0 km/h (0 Bft) 0,00 %
25.05.2015 02:00 10,2 C 97 % 1017,4 hPa 0,0 l/m 0,0 km/h (0 Bft) S-SW 192 0 min 0,000 mm 0,0 UV-I 0 W/m 9,7 C 10,2 C 0,0 km/h (0 Bft) 0,00 %
25.05.2015 02:15 10,2 C 97 % 1016,8 hPa 0,0 l/m 0,0 km/h (0 Bft) S-SW 203 0 min 0,000 mm 0,0 UV-I 0 W/m 9,7 C 10,2 C 0,0 km/h (0 Bft) 0,00 %
25.05.2015 02:30 10,2 C 97 % 1016,8 hPa 0,0 l/m 0,0 km/h (0 Bft) S 176 0 min 0,000 mm 0,0 UV-I 0 W/m 9,7 C 10,2 C 0,0 km/h (0 Bft) 0,00 %
25.05.2015 02:45 10,2 C 97 % 1016,8 hPa 0,0 l/m 0,0 km/h (0 Bft) S 181 0 min 0,000 mm 0,0 UV-I 0 W/m 9,7 C 10,2 C 0,0 km/h (0 Bft) 0,00 %
25.05.2015 03:00 10,1 C 97 % 1016,8 hPa 0,0 l/m 0,0 km/h (0 Bft) S 189 0 min 0,000 mm 0,0 UV-I 0 W/m 9,6 C 10,1 C 0,0 km/h (0 Bft) 0,00 %
25.05.2015 03:15 10,1 C 97 % 1016,6 hPa 0,0 l/m 0,0 km/h (0 Bft) S 186 0 min 0,000 mm 0,0 UV-I 0 W/m 9,6 C 10,1 C 0,0 km/h (0 Bft) 0,00 %
25.05.2015 03:30 10,0 C 97 % 1016,6 hPa 0,0 l/m 0,0 km/h (0 Bft) S 180 0 min 0,000 mm 0,0 UV-I 0 W/m 9,5 C 10,0 C 0,0 km/h (0 Bft) 0,00 %
25.05.2015 03:45 10,0 C 97 % 1016,6 hPa 0,0 l/m 0,0 km/h (0 Bft) S 184 0 min 0,000 mm 0,0 UV-I 0 W/m 9,5 C 10,0 C 0,0 km/h (0 Bft) 0,00 %
25.05.2015 04:00 10,0 C 97 % 1016,4 hPa 0,0 l/m 0,0 km/h (0 Bft) S 185 0 min 0,000 mm 0,0 UV-I 0 W/m 9,5 C 10,0 C 0,0 km/h (0 Bft) 0,00 %
25.05.2015 04:15 9,9 C 97 % 1016,4 hPa 0,0 l/m 0,0 km/h (0 Bft) S-SW 199 0 min 0,000 mm 0,0 UV-I 0 W/m 9,4 C 9,9 C 0,0 km/h (0 Bft) 0,00 %
25.05.2015 04:30 9,9 C 97 % 1016,4 hPa 0,0 l/m 0,0 km/h (0 Bft) S 174 0 min 0,000 mm 0,0 UV-I 0 W/m 9,4 C 9,9 C 0,0 km/h (0 Bft) 0,00 %
25.05.2015 04:45 9,8 C 97 % 1016,2 hPa 0,0 l/m 0,0 km/h (0 Bft) S 178 0 min 0,000 mm 0,0 UV-I 0 W/m 9,3 C 9,8 C 0,0 km/h (0 Bft) 0,00 %
25.05.2015 05:00 9,7 C 96 % 1016,1 hPa 0,0 l/m 0,0 km/h (0 Bft) S-SW 198 0 min 0,000 mm 0,0 UV-I 0 W/m 9,1 C 9,7 C 0,0 km/h (0 Bft) 0,00 %
25.05.2015 05:15 9,7 C 96 % 1016,1 hPa 0,0 l/m 0,0 km/h (0 Bft) S 183 0 min 0,000 mm 0,0 UV-I 0 W/m 9,1 C 9,7 C 0,0 km/h (0 Bft) 0,00 %
25.05.2015 05:30 9,8 C 97 % 1015,9 hPa 0,0 l/m 0,0 km/h (0 Bft) S 185 0 min 0,000 mm 0,0 UV-I 0 W/m 9,3 C 9,8 C 0,0 km/h (0 Bft) 0,00 %
25.05.2015 05:45 9,9 C 97 % 1016,3 hPa 0,0 l/m 0,0 km/h (0 Bft) S 182 0 min 0,000 mm 0,0 UV-I 2 W/m 9,4 C 9,9 C 0,0 km/h (0 Bft) 0,00 %
25.05.2015 06:00 10,0 C 97 % 1016,2 hPa 0,0 l/m 0,0 km/h (0 Bft) S 184 0 min 0,000 mm 0,0 UV-I 8 W/m 9,5 C 10,0 C 0,0 km/h (0 Bft) 0,00 %
25.05.2015 06:15 10,1 C 96 % 1016,2 hPa 0,0 l/m 0,0 km/h (0 Bft) S-SW 199 0 min 0,000 mm 0,0 UV-I 11 W/m 9,5 C 10,1 C 0,0 km/h (0 Bft) 0,00 %
25.05.2015 06:30 10,2 C 96 % 1016,1 hPa 0,0 l/m 0,0 km/h (0 Bft) S 181 0 min 0,000 mm 0,0 UV-I 67 W/m 9,6 C 10,2 C 0,0 km/h (0 Bft) 0,00 %
25.05.2015 06:45 10,6 C 94 % 1015,9 hPa 0,0 l/m 0,0 km/h (0 Bft) S 179 0 min 0,000 mm 1,0 UV-I 84 W/m 9,7 C 10,6 C 0,0 km/h (0 Bft) 0,00 %
25.05.2015 07:00 10,9 C 92 % 1015,9 hPa 0,0 l/m 0,0 km/h (0 Bft) S 175 0 min 0,000 mm 1,0 UV-I 82 W/m 9,7 C 10,9 C 0,0 km/h (0 Bft) 0,00 %
25.05.2015 07:15 11,2 C 91 % 1015,8 hPa 0,0 l/m 0,0 km/h (0 Bft) S 190 0 min 0,000 mm 1,0 UV-I 97 W/m 9,8 C 11,2 C 0,0 km/h (0 Bft) 0,00 %
25.05.2015 07:30 11,3 C 89 % 1016,0 hPa 0,0 l/m 0,0 km/h (0 Bft) S-SW 193 0 min 0,000 mm 1,0 UV-I 108 W/m 9,6 C 11,3 C 0,0 km/h (0 Bft) 0,00 %
25.05.2015 07:45 11,7 C 88 % 1015,9 hPa 0,0 l/m 0,0 km/h (0 Bft) S 179 0 min 0,000 mm 1,0 UV-I 147 W/m 9,8 C 11,7 C 0,0 km/h (0 Bft) 0,00 %
25.05.2015 08:00 12,4 C 85 % 1015,6 hPa 0,0 l/m 2,2 km/h (1 Bft) W-SW 251 0 min 0,000 mm 1,0 UV-I 201 W/m 9,9 C 12,4 C 4,0 km/h (1 Bft) 0,00 %
25.05.2015 08:15 12,9 C 83 % 1015,7 hPa 0,0 l/m 0,0 km/h (0 Bft) NO 43 0 min 0,000 mm 2,0 UV-I 250 W/m 10,1 C 12,9 C 0,0 km/h (0 Bft) 0,00 %
25.05.2015 08:30 13,0 C 82 % 1015,6 hPa 0,0 l/m 0,4 km/h (0 Bft) SW 218 0 min 0,000 mm 1,0 UV-I 184 W/m 10,0 C 13,0 C 4,0 km/h (1 Bft) 0,00 %
25.05.2015 08:45 13,6 C 80 % 1015,3 hPa 0,0 l/m 0,7 km/h (0 Bft) SW 221 15 min 0,000 mm 2,0 UV-I 316 W/m 10,2 C 13,6 C 4,0 km/h (1 Bft) 0,00 %
25.05.2015 09:00 14,7 C 75 % 1015,0 hPa 0,0 l/m 0,0 km/h (0 Bft) N 357 15 min 0,000 mm 2,0 UV-I 351 W/m 10,3 C 14,7 C 0,0 km/h (0 Bft) 0,00 %
25.05.2015 09:15 14,9 C 74 % 1014,8 hPa 0,0 l/m 0,0 km/h (0 Bft) S-SO 152 15 min 0,000 mm 2,0 UV-I 373 W/m 10,3 C 14,9 C 0,0 km/h (0 Bft) 0,00 %
25.05.2015 09:30 14,7 C 75 % 1014,8 hPa 0,0 l/m 0,0 km/h (0 Bft) S-SO 159 0 min 0,000 mm 2,0 UV-I 281 W/m 10,3 C 14,7 C 0,0 km/h (0 Bft) 0,00 %
25.05.2015 09:45 15,0 C 75 % 1014,6 hPa 0,0 l/m 1,8 km/h (1 Bft) W-NW 289 0 min 0,000 mm 1,0 UV-I 328 W/m 10,6 C 15,0 C 4,0 km/h (1 Bft) 0,00 %
25.05.2015 10:00 14,4 C 78 % 1014,8 hPa 0,0 l/m 0,4 km/h (0 Bft) W-SW 237 0 min 0,000 mm 1,0 UV-I 169 W/m 10,6 C 14,4 C 4,0 km/h (1 Bft) 0,00 %
25.05.2015 10:15 14,4 C 76 % 1014,7 hPa 0,0 l/m 0,0 km/h (0 Bft) SW 216 0 min 0,000 mm 2,0 UV-I 207 W/m 10,2 C 14,4 C 0,0 km/h (0 Bft) 0,00 %
25.05.2015 10:30 15,6 C 71 % 1014,3 hPa 0,0 l/m 0,0 km/h (0 Bft) SW 217 0 min 0,000 mm 3,0 UV-I 308 W/m 10,4 C 15,6 C 0,0 km/h (0 Bft) 0,00 %
25.05.2015 10:45 16,1 C 70 % 1014,1 hPa 0,0 l/m 1,4 km/h (1 Bft) W-SW 250 15 min 0,000 mm 4,0 UV-I 522 W/m 10,6 C 16,1 C 4,0 km/h (1 Bft) 0,00 %
25.05.2015 11:00 16,7 C 68 % 1014,0 hPa 0,0 l/m 0,7 km/h (0 Bft) SW 236 0 min 0,000 mm 4,0 UV-I 384 W/m 10,8 C 16,7 C 4,0 km/h (1 Bft) 0,00 %
25.05.2015 11:15 17,3 C 67 % 1013,7 hPa 0,0 l/m 0,4 km/h (0 Bft) NW 314 15 min 0,000 mm 2,0 UV-I 747 W/m 11,1 C 17,3 C 4,0 km/h (1 Bft) 0,00 %
25.05.2015 11:30 16,6 C 66 % 1013,7 hPa 0,0 l/m 0,0 km/h (0 Bft) O 100 0 min 0,000 mm 4,0 UV-I 323 W/m 10,2 C 16,6 C 0,0 km/h (0 Bft) 0,00 %
25.05.2015 11:45 17,7 C 65 % 1013,3 hPa 0,0 l/m 0,0 km/h (0 Bft) S-SW 210 15 min 0,000 mm 4,0 UV-I 564 W/m 11,0 C 17,7 C 0,0 km/h (0 Bft) 0,00 %
25.05.2015 12:00 17,7 C 64 % 1013,3 hPa 0,0 l/m 6,5 km/h (2 Bft) W 267 0 min 0,000 mm 4,0 UV-I 347 W/m 10,8 C 17,7 C 7,9 km/h (2 Bft) 0,00 %
25.05.2015 12:15 18,4 C 62 % 1012,9 hPa 0,0 l/m 2,2 km/h (1 Bft) W 261 15 min 0,000 mm 4,0 UV-I 633 W/m 11,0 C 18,4 C 4,0 km/h (1 Bft) 0,00 %
25.05.2015 12:30 18,3 C 61 % 1012,8 hPa 0,0 l/m 0,0 km/h (0 Bft) W-SW 240 15 min 0,000 mm 5,0 UV-I 530 W/m 10,6 C 18,3 C 0,0 km/h (0 Bft) 0,00 %
25.05.2015 12:45 18,1 C 64 % 1012,5 hPa 0,0 l/m 0,0 km/h (0 Bft) SW 218 15 min 0,000 mm 4,0 UV-I 536 W/m 11,2 C 18,1 C 0,0 km/h (0 Bft) 0,00 %
25.05.2015 13:00 18,6 C 58 % 1012,6 hPa 0,0 l/m 1,8 km/h (1 Bft) NW 318 15 min 0,000 mm 5,0 UV-I 681 W/m 10,2 C 18,6 C 4,0 km/h (1 Bft) 0,00 %
25.05.2015 13:15 18,9 C 60 % 1012,2 hPa 0,0 l/m 0,7 km/h (0 Bft) S-SW 212 15 min 0,000 mm 4,0 UV-I 677 W/m 11,0 C 18,9 C 4,0 km/h (1 Bft) 0,00 %
25.05.2015 13:30 19,3 C 57 % 1012,2 hPa 0,0 l/m 0,0 km/h (0 Bft) N 351 15 min 0,000 mm 5,0 UV-I 611 W/m 10,6 C 19,3 C 0,0 km/h (0 Bft) 0,00 %
25.05.2015 13:45 19,2 C 58 % 1012,0 hPa 0,0 l/m 3,2 km/h (1 Bft) NW 313 15 min 0,000 mm 4,0 UV-I 819 W/m 10,7 C 19,2 C 7,9 km/h (2 Bft) 0,00 %
25.05.2015 14:00 19,6 C 58 % 1011,6 hPa 0,0 l/m 0,0 km/h (0 Bft) SW 216 0 min 0,000 mm 3,0 UV-I 465 W/m 11,1 C 19,6 C 0,0 km/h (0 Bft) 0,00 %
25.05.2015 14:15 19,6 C 54 % 1011,5 hPa 0,0 l/m 0,0 km/h (0 Bft) S 191 15 min 0,000 mm 4,0 UV-I 658 W/m 10,0 C 19,6 C 0,0 km/h (0 Bft) 0,00 %
25.05.2015 14:30 19,6 C 56 % 1011,2 hPa 0,0 l/m 0,4 km/h (0 Bft) O-NO 70 15 min 0,000 mm 3,0 UV-I 601 W/m 10,6 C 19,6 C 4,0 km/h (1 Bft) 0,00 %
25.05.2015 14:45 18,9 C 59 % 1011,2 hPa 0,0 l/m 0,0 km/h (0 Bft) SW 230 0 min 0,000 mm 2,0 UV-I 320 W/m 10,7 C 18,9 C 0,0 km/h (0 Bft) 0,00 %
25.05.2015 15:00 19,1 C 52 % 1011,0 hPa 0,0 l/m 0,4 km/h (0 Bft) S 188 0 min 0,000 mm 2,0 UV-I 355 W/m 9,0 C 19,1 C 4,0 km/h (1 Bft) 0,00 %
25.05.2015 15:15 19,5 C 57 % 1010,8 hPa 0,0 l/m 0,0 km/h (0 Bft) W-SW 255 0 min 0,000 mm 2,0 UV-I 309 W/m 10,8 C 19,5 C 0,0 km/h (0 Bft) 0,00 %
25.05.2015 15:30 19,1 C 56 % 1010,7 hPa 0,0 l/m 4,7 km/h (1 Bft) W-NW 295 0 min 0,000 mm 3,0 UV-I 317 W/m 10,1 C 19,1 C 7,9 km/h (2 Bft) 0,00 %
25.05.2015 15:45 20,1 C 50 % 1010,3 hPa 0,0 l/m 0,0 km/h (0 Bft) S 188 15 min 0,000 mm 3,0 UV-I 478 W/m 9,3 C 20,1 C 0,0 km/h (0 Bft) 0,00 %
25.05.2015 16:00 20,7 C 49 % 1009,9 hPa 0,0 l/m 0,0 km/h (0 Bft) S 187 15 min 0,000 mm 3,0 UV-I 424 W/m 9,6 C 20,7 C 0,0 km/h (0 Bft) 0,00 %
25.05.2015 16:15 21,0 C 50 % 1009,8 hPa 0,0 l/m 0,0 km/h (0 Bft) S 182 15 min 0,000 mm 2,0 UV-I 539 W/m 10,2 C 21,0 C 0,0 km/h (0 Bft) 0,00 %
25.05.2015 16:30 20,5 C 47 % 1009,9 hPa 0,0 l/m 0,0 km/h (0 Bft) S 178 15 min 0,000 mm 2,0 UV-I 487 W/m 8,8 C 20,5 C 0,0 km/h (0 Bft) 0,00 %
25.05.2015 16:45 20,8 C 49 % 1009,6 hPa 0,0 l/m 1,4 km/h (1 Bft) W 274 15 min 0,000 mm 2,0 UV-I 448 W/m 9,7 C 20,8 C 4,0 km/h (1 Bft) 0,00 %
25.05.2015 17:00 19,8 C 54 % 1009,9 hPa 0,0 l/m 6,8 km/h (2 Bft) N-NW 327 15 min 0,000 mm 1,0 UV-I 382 W/m 10,2 C 19,6 C 11,9 km/h (2 Bft) 0,00 %
25.05.2015 17:15 16,9 C 62 % 1010,4 hPa 0,0 l/m 13,0 km/h (3 Bft) W-NW 295 0 min 0,000 mm 2,0 UV-I 270 W/m 9,6 C 14,1 C 15,8 km/h (3 Bft) 0,00 %
25.05.2015 17:30 16,4 C 62 % 1010,4 hPa 0,0 l/m 4,0 km/h (1 Bft) W-NW 289 0 min 0,000 mm 2,0 UV-I 271 W/m 9,1 C 16,4 C 4,0 km/h (1 Bft) 0,00 %
25.05.2015 17:45 16,2 C 61 % 1010,0 hPa 0,0 l/m 0,4 km/h (0 Bft) O 86 0 min 0,000 mm 1,0 UV-I 250 W/m 8,7 C 16,2 C 4,0 km/h (1 Bft) 0,00 %
25.05.2015 18:00 16,6 C 59 % 1009,9 hPa 0,0 l/m 0,0 km/h (0 Bft) S 181 0 min 0,000 mm 1,0 UV-I 220 W/m 8,6 C 16,6 C 0,0 km/h (0 Bft) 0,00 %
25.05.2015 18:15 17,2 C 58 % 1009,9 hPa 0,0 l/m 0,0 km/h (0 Bft) S-SW 198 0 min 0,000 mm 1,0 UV-I 205 W/m 8,9 C 17,2 C 0,0 km/h (0 Bft) 0,00 %
25.05.2015 18:30 17,3 C 59 % 1009,6 hPa 0,0 l/m 0,0 km/h (0 Bft) S-SW 207 0 min 0,000 mm 1,0 UV-I 154 W/m 9,2 C 17,3 C 0,0 km/h (0 Bft) 0,00 %
25.05.2015 18:45 17,2 C 61 % 1009,7 hPa 0,0 l/m 0,0 km/h (0 Bft) S-SW 194 0 min 0,000 mm 1,0 UV-I 125 W/m 9,6 C 17,2 C 0,0 km/h (0 Bft) 0,00 %
25.05.2015 19:00 17,5 C 59 % 1009,7 hPa 0,0 l/m 0,0 km/h (0 Bft) S-SW 202 15 min 0,000 mm 1,0 UV-I 181 W/m 9,4 C 17,5 C 0,0 km/h (0 Bft) 0,00 %
25.05.2015 19:15 17,7 C 62 % 1009,7 hPa 0,0 l/m 0,0 km/h (0 Bft) S-SW 200 15 min 0,000 mm 1,0 UV-I 151 W/m 10,3 C 17,7 C 0,0 km/h (0 Bft) 0,00 %
25.05.2015 19:30 17,5 C 61 % 1009,7 hPa 0,0 l/m 0,0 km/h (0 Bft) S 188 15 min 0,000 mm 0,0 UV-I 122 W/m 9,9 C 17,5 C 0,0 km/h (0 Bft) 0,00 %
25.05.2015 19:45 17,0 C 64 % 1009,8 hPa 0,0 l/m 0,0 km/h (0 Bft) S 185 0 min 0,000 mm 0,0 UV-I 72 W/m 10,1 C 17,0 C 0,0 km/h (0 Bft) 0,00 %
25.05.2015 20:00 16,3 C 70 % 1010,0 hPa 0,0 l/m 0,0 km/h (0 Bft) S 183 0 min 0,000 mm 0,0 UV-I 39 W/m 10,8 C 16,3 C 0,0 km/h (0 Bft) 0,00 %
25.05.2015 20:15 15,1 C 73 % 1010,2 hPa 0,0 l/m 0,0 km/h (0 Bft) W-SW 247 0 min 0,000 mm 0,0 UV-I 25 W/m 10,3 C 15,1 C 0,0 km/h (0 Bft) 0,00 %
25.05.2015 20:30 14,0 C 78 % 1010,4 hPa 0,0 l/m 0,0 km/h (0 Bft) W-SW 256 0 min 0,000 mm 0,0 UV-I 6 W/m 10,2 C 14,0 C 0,0 km/h (0 Bft) 0,00 %
25.05.2015 20:45 13,5 C 81 % 1010,5 hPa 0,0 l/m 0,0 km/h (0 Bft) S 178 0 min 0,000 mm 0,0 UV-I 0 W/m 10,3 C 13,5 C 0,0 km/h (0 Bft) 0,00 %
25.05.2015 21:00 13,5 C 81 % 1010,5 hPa 0,0 l/m 1,8 km/h (1 Bft) S-SW 210 0 min 0,000 mm 0,0 UV-I 0 W/m 10,3 C 13,5 C 4,0 km/h (1 Bft) 0,00 %
25.05.2015 21:15 13,3 C 82 % 1010,6 hPa 0,0 l/m 1,8 km/h (1 Bft) SW 229 0 min 0,000 mm 0,0 UV-I 0 W/m 10,3 C 13,3 C 4,0 km/h (1 Bft) 0,00 %
25.05.2015 21:30 13,0 C 83 % 1010,9 hPa 0,0 l/m 0,0 km/h (0 Bft) S 185 0 min 0,000 mm 0,0 UV-I 0 W/m 10,2 C 13,0 C 0,0 km/h (0 Bft) 0,00 %
25.05.2015 21:45 12,7 C 84 % 1010,9 hPa 0,0 l/m 0,0 km/h (0 Bft) SW 218 0 min 0,000 mm 0,0 UV-I 0 W/m 10,1 C 12,7 C 0,0 km/h (0 Bft) 0,00 %
25.05.2015 22:00 12,3 C 86 % 1011,1 hPa 0,0 l/m 0,0 km/h (0 Bft) SW 224 0 min 0,000 mm 0,0 UV-I 0 W/m 10,0 C 12,3 C 0,0 km/h (0 Bft) 0,00 %
25.05.2015 22:15 12,0 C 86 % 1011,0 hPa 0,0 l/m 0,0 km/h (0 Bft) NO 51 0 min 0,000 mm 0,0 UV-I 0 W/m 9,7 C 12,0 C 0,0 km/h (0 Bft) 0,00 %
25.05.2015 22:30 12,1 C 86 % 1011,1 hPa 0,0 l/m 0,0 km/h (0 Bft) NO 39 0 min 0,000 mm 0,0 UV-I 0 W/m 9,8 C 12,1 C 0,0 km/h (0 Bft) 0,00 %
25.05.2015 22:45 11,9 C 88 % 1011,2 hPa 0,0 l/m 1,4 km/h (1 Bft) W-SW 256 0 min 0,000 mm 0,0 UV-I 0 W/m 10,0 C 11,9 C 4,0 km/h (1 Bft) 0,00 %
25.05.2015 23:00 11,9 C 88 % 1011,0 hPa 0,0 l/m 0,0 km/h (0 Bft) S 181 0 min 0,000 mm 0,0 UV-I 0 W/m 10,0 C 11,9 C 0,0 km/h (0 Bft) 0,00 %
25.05.2015 23:15 11,6 C 88 % 1011,1 hPa 0,0 l/m 0,0 km/h (0 Bft) S 177 0 min 0,000 mm 0,0 UV-I 0 W/m 9,7 C 11,6 C 0,0 km/h (0 Bft) 0,00 %
25.05.2015 23:30 11,5 C 86 % 1011,1 hPa 0,0 l/m 0,4 km/h (0 Bft) S-SW 208 0 min 0,000 mm 0,0 UV-I 0 W/m 9,2 C 11,5 C 4,0 km/h (1 Bft) 0,00 %
25.05.2015 23:45 11,5 C 85 % 1010,9 hPa 0,0 l/m 0,4 km/h (0 Bft) SO 138 0 min 0,000 mm 0,0 UV-I 0 W/m 9,1 C 11,5 C 4,0 km/h (1 Bft) 0,00 %
_ Min-Zeit 05:00 16:30 16:45 - 00:00 - - - - - - 18:00 05:00 00:00 00:00
Minimum _ 9,7 C 47 % 1009,6 hPa - 0,0 km/h (0 Bft) - - - - - - 8,6 C 9,7 C 0,0 km/h (0 Bft) 0,00 %
_ Max-Zeit 16:15 00:15 00:00 00:00 17:15 - - 08:45 00:00 12:30 13:45 12:45 16:15 17:15 00:00
Maximum _ 21,0 C 97 % 1017,5 hPa 0,0 l/m 13,0 km/h
W-NW (3 Bft)
- - 15 min 0,000 mm 5,0 UV-I 819 W/m 11,2 C 21,0 C 15,8 km/h
W-NW (3 Bft)
0,00 %
Durchschnitt _ 14,3 C 77 % 1013,3 hPa #0,0 l/m 0,6 km/h (0 Bft) W-NW - #6:00 h #0,000 mm 2,4 UV-I 314 W/m 9,9 C 14,3 C 1,4 km/h (1 Bft) 0,00 %